GW4241 Weather Reports


time (UTC)temp
C
wind
direction
speed
KPH
gust
KPH
rain 1hr
cm
rain 24hr
cm
rain mn
cm
humidity
%
barometer
mb
20260505211024 16 281 1.6 4.8 0.00 0.00 0.00 71 1009.7
20260505210523 16 290 1.6 4.8 0.00 0.00 0.00 72 1009.7
20260505210100 16 252 1.6 4.8 0.00 0.00 0.00 74 1009.7
20260505205518 16 281 1.6 4.8 0.00 0.00 0.00 74 1009.7
20260505205022 16 332 0.0 4.8 0.00 0.00 0.00 75 1009.6
20260505204604 16 299 0.0 4.8 0.00 0.00 0.00 76 1009.6
20260505204022 16 314 1.6 4.8 0.00 0.00 0.00 78 1009.8
20260505203520 15 310 0.0 3.2 0.00 0.00 0.00 80 1009.7
20260505203104 15 22 0.0 4.8 0.00 0.00 0.00 79 1009.7
20260505202519 15 19 0.0 4.8 0.00 0.00 0.00 79 1009.8
20260505202022 15 298 1.6 4.8 0.00 0.00 0.00 81 1009.6
20260505201553 14 71 0.0 3.2 0.00 0.00 0.00 81 1009.7
20260505201020 13 49 0.0 4.8 0.00 0.00 0.00 82 1009.7
20260505200702 13 59 1.6 4.8 0.00 0.00 0.00 82 1009.6
20260505200041 13 41 1.6 3.2 0.00 0.00 0.00 84 1009.8
20260505195514 13 285 1.6 4.8 0.00 0.00 0.00 84 1009.8
20260505195012 13 107 0.0 4.8 0.00 0.00 0.00 84 1009.7
20260505194549 12 320 1.6 3.2 0.00 0.00 0.00 84 1009.7
20260505194015 12 97 0.0 4.8 0.00 0.00 0.00 86 1009.7
20260505193512 12 115 0.0 4.8 0.00 0.00 0.00 85 1009.7
20260505193042 12 306 1.6 3.2 0.00 0.00 0.00 85 1009.7
20260505192513 12 356 0.0 4.8 0.00 0.00 0.00 85 1009.7
20260505192013 12 299 0.0 4.8 0.00 0.00 0.00 83 1009.7
20260505191537 12 14 0.0 3.2 0.00 0.00 0.00 85 1009.8
20260505191013 12 9 0.0 3.2 0.00 0.00 0.00 88 1009.9
20260505190513 12 29 0.0 3.2 0.00 0.00 0.00 87 1009.8
20260505190040 12 32 0.0 3.2 0.00 0.00 0.00 87 1009.7
20260505185515 12 31 1.6 3.2 0.00 0.00 0.00 87 1009.7
20260505185015 11 73 0.0 4.8 0.00 0.00 0.00 88 1009.6
20260505184535 11 45 1.6 4.8 0.00 0.00 0.00 88 1009.7
20260505184015 11 73 1.6 4.8 0.00 0.00 0.00 89 1009.7
20260505183512 11 52 0.0 3.2 0.00 0.00 0.00 88 1009.6
20260505183037 11 64 0.0 3.2 0.00 0.00 0.00 89 1009.5
20260505182519 11 74 0.0 3.2 0.00 0.00 0.00 90 1009.4
20260505182013 11 54 0.0 3.2 0.00 0.00 0.00 91 1009.3
20260505181541 11 20 0.0 3.2 0.00 0.00 0.00 90 1009.2
20260505181015 11 79 1.6 3.2 0.00 0.00 0.00 90 1009.2
20260505180515 10 45 0.0 4.8 0.00 0.00 0.00 90 1009.3
20260505180059 10 42 3.2 4.8 0.00 0.00 0.00 90 1009.3
20260505175515 10 41 1.6 3.2 0.00 0.00 0.00 91 1009.3
20260505175018 10 41 0.0 3.2 0.00 0.00 0.00 91 1009.3
20260505174555 10 41 1.6 4.8 0.00 0.00 0.00 91 1009.3
20260505174015 10 43 1.6 3.2 0.00 0.00 0.00 92 1009.2
20260505173519 10 60 0.0 3.2 0.00 0.00 0.00 93 1009.3
20260505173046 10 60 0.0 3.2 0.00 0.00 0.00 93 1009.2
20260505172514 10 62 0.0 1.6 0.00 0.00 0.00 94 1009.1
20260505172015 10 71 0.0 1.6 0.00 0.00 0.00 95 1009.2
20260505171537 10 70 0.0 1.6 0.00 0.00 0.00 95 1009.1
20260505171017 10 83 0.0 1.6 0.00 0.00 0.00 96 1009.1
20260505170515 10 83 0.0 1.6 0.00 0.00 0.00 96 1009.2
20260505170040 10 62 0.0 1.6 0.00 0.00 0.00 96 1009.3
20260505165518 9 81 0.0 1.6 0.00 0.00 0.00 96 1009.2
20260505165013 9 82 0.0 3.2 0.00 0.00 0.00 96 1009.2
20260505164542 9 82 0.0 3.2 0.00 0.00 0.00 96 1009.2
20260505164015 9 87 0.0 3.2 0.00 0.00 0.00 96 1009.2
20260505163513 9 91 0.0 3.2 0.00 0.00 0.00 96 1009.2
20260505163052 9 60 0.0 3.2 0.00 0.00 0.00 96 1009.2
20260505162515 9 49 0.0 3.2 0.00 0.00 0.00 96 1009.2
20260505162016 9 35 0.0 1.6 0.00 0.00 0.00 96 1009.2
20260505161538 8 35 0.0 1.6 0.00 0.00 0.00 97 1009.2
20260505161015 8 35 0.0 1.6 0.00 0.00 0.00 96 1009.2
20260505160516 8 35 0.0 3.2 0.00 0.00 0.00 96 1009.3
20260505153042 8 52 0.0 1.6 0.00 0.00 0.00 97 1009.1
20260505152516 8 54 0.0 3.2 0.00 0.00 0.00 97 1009.1
20260505152015 8 54 0.0 3.2 0.00 0.00 0.00 96 1009.1
20260505151537 8 293 0.0 0.0 0.00 0.00 0.00 97 1009.2
20260505151015 8 293 0.0 0.0 0.00 0.00 0.00 97 1009.1
20260505150517 8 293 0.0 1.6 0.00 0.00 0.00 96 1009.1
20260505140516 7 293 0.0 1.6 0.00 0.00 0.00 96 1008.7
20260505125015 7 16 0.0 3.2 0.00 0.00 0.00 96 1008.4
20260505124539 7 16 0.0 3.2 0.00 0.00 0.00 96 1008.3
20260505124016 7 303 0.0 1.6 0.00 0.00 0.00 96 1008.3
20260505123518 7 303 0.0 1.6 0.00 0.00 0.00 96 1008.3
20260505123044 7 303 0.0 1.6 0.00 0.00 0.00 96 1008.3
20260505122516 7 303 0.0 1.6 0.00 0.00 0.00 96 1008.3
20260505122017 7 303 0.0 1.6 0.00 0.00 0.00 96 1008.3
20260505121539 7 303 0.0 1.6 0.00 0.00 0.00 96 1008.3
20260505121019 8 303 0.0 3.2 0.00 0.00 0.00 96 1008.3
20260505120519 8 258 0.0 1.6 0.00 0.00 0.00 96 1008.2
20260505120046 8 258 0.0 1.6 0.00 0.00 0.00 96 1008.2
20260505115518 8 258 0.0 3.2 0.00 0.00 0.00 96 1008.2
20260505115015 8 258 0.0 3.2 0.00 0.00 0.00 96 1008.3
20260505114544 8 312 0.0 1.6 0.00 0.00 0.00 96 1008.1
20260505114023 7 10 0.0 0.0 0.00 0.00 0.00 96 1008.2
20260505113521 7 10 0.0 3.2 0.00 0.00 0.00 96 1008.2
20260505113106 8 10 0.0 3.2 0.00 0.00 0.00 95 1008.1
20260505112516 8 12 0.0 3.2 0.00 0.00 0.00 95 1008.1
20260505112015 8 345 0.0 3.2 0.00 0.00 0.00 95 1008.1
20260505111542 8 276 0.0 3.2 0.00 0.00 0.00 96 1008.1
20260505111019 8 254 0.0 1.6 0.00 0.00 0.00 96 1008.1
20260505110520 8 254 0.0 1.6 0.00 0.00 0.00 95 1008.0
20260505110332 8 254 0.0 3.2 0.00 0.00 0.00 95 1008.0
20260505102013 8 258 0.0 3.2 0.00 0.00 0.00 95 1007.9
20260505101536 8 258 0.0 3.2 0.00 0.00 0.00 95 1007.8
20260505101010 8 258 0.0 3.2 0.00 0.00 0.00 95 1007.8
20260505100512 8 258 0.0 1.6 0.00 0.00 0.00 95 1007.7
20260505100037 8 258 0.0 1.6 0.00 0.00 0.00 95 1007.8
20260505095512 8 258 0.0 3.2 0.00 0.00 0.00 95 1007.8
20260505095014 8 258 0.0 3.2 0.00 0.00 0.00 95 1007.8
20260505094537 8 258 0.0 3.2 0.00 0.00 0.00 95 1007.9
20260505094010 8 258 0.0 1.6 0.00 0.00 0.00 95 1007.9
20260505093511 8 258 0.0 1.6 0.00 0.00 0.00 95 1007.9
20260505093039 8 258 0.0 1.6 0.00 0.00 0.00 95 1007.9
20260505092511 8 258 0.0 3.2 0.00 0.00 0.00 95 1007.9
20260505092012 8 258 0.0 3.2 0.00 0.00 0.00 95 1007.9
20260505091544 8 258 0.0 3.2 0.00 0.00 0.00 94 1007.9
20260505091014 8 258 0.0 3.2 0.00 0.00 0.00 94 1007.9
20260505090512 8 258 0.0 3.2 0.00 0.00 0.00 94 1007.9
20260505090038 8 258 0.0 3.2 0.00 0.00 0.00 95 1007.9
20260505085513 8 258 0.0 3.2 0.00 0.00 0.00 95 1008.0
20260505085012 8 258 0.0 3.2 0.00 0.00 0.00 95 1008.0
20260505084535 8 258 0.0 3.2 0.00 0.00 0.00 94 1008.1
20260505084012 8 258 0.0 3.2 0.00 0.00 0.00 94 1008.0
20260505083513 8 258 0.0 3.2 0.00 0.00 0.00 94 1008.0
20260505083039 8 258 1.6 3.2 0.00 0.00 0.00 94 1008.0
20260505082512 8 258 0.0 1.6 0.00 0.00 0.00 94 1008.1
20260505082011 8 258 0.0 1.6 0.00 0.00 0.00 94 1008.1
20260505081538 8 258 0.0 1.6 0.00 0.00 0.00 94 1008.0
20260505081012 8 258 0.0 1.6 0.00 0.00 0.00 94 1008.1
20260505080511 8 258 0.0 1.6 0.00 0.00 0.00 94 1008.2
20260505080034 8 258 0.0 1.6 0.00 0.00 0.00 94 1008.2
20260505075512 8 258 0.0 1.6 0.00 0.00 0.00 94 1008.3
20260505075014 8 258 0.0 1.6 0.00 0.00 0.00 94 1008.2
20260505074538 8 258 0.0 1.6 0.00 0.00 0.00 94 1008.3
20260505074012 8 258 0.0 1.6 0.00 0.00 0.00 94 1008.3
20260505073513 8 258 0.0 0.0 0.00 0.00 0.00 94 1008.3
20260505073037 8 258 0.0 1.6 0.00 0.00 0.00 94 1008.3
20260505072519 8 258 0.0 3.2 0.00 0.00 0.00 94 1008.4
20260505072011 8 251 0.0 1.6 0.00 0.00 0.00 94 1008.4
20260505071552 8 251 0.0 1.6 0.00 0.00 0.00 94 1008.4
20260505071011 8 251 0.0 1.6 0.00 0.00 0.00 94 1008.4
20260505070514 8 251 0.0 1.6 0.00 0.00 0.00 94 1008.4
20260505070047 8 251 0.0 1.6 0.00 0.00 0.00 94 1008.5
20260505065514 8 251 0.0 1.6 0.00 0.00 0.00 94 1008.5
20260505065012 8 251 0.0 1.6 0.00 0.00 0.00 94 1008.5
20260505064536 9 251 0.0 1.6 0.00 0.00 0.00 94 1008.5
20260505064009 9 251 0.0 1.6 0.00 0.00 0.00 94 1008.5
20260505063512 9 251 0.0 1.6 0.00 0.00 0.00 94 1008.4
20260505063053 9 251 0.0 1.6 0.00 0.00 0.00 94 1008.5
20260505062517 9 251 0.0 3.2 0.00 0.00 0.00 94 1008.3
20260505062013 9 251 0.0 3.2 0.00 0.00 0.00 94 1008.2
20260505061604 9 251 0.0 3.2 0.00 0.00 0.00 93 1008.2
20260505061013 9 251 0.0 3.2 0.00 0.00 0.00 93 1008.2
20260505060511 9 251 1.6 3.2 0.00 0.00 0.00 93 1008.2
20260505060038 9 243 0.0 3.2 0.00 0.00 0.00 93 1008.2
20260505055517 9 243 0.0 3.2 0.00 0.00 0.00 93 1008.1
20260505055016 9 243 0.0 3.2 0.00 0.00 0.00 93 1008.0
20260505054548 9 243 0.0 3.2 0.00 0.00 0.00 93 1008.0
20260505054014 9 243 0.0 3.2 0.00 0.00 0.00 93 1008.0
20260505053514 9 243 0.0 1.6 0.00 0.00 0.00 93 1008.1
20260505053042 9 243 0.0 3.2 0.00 0.00 0.00 93 1008.0
20260505052510 9 243 0.0 3.2 0.00 0.00 0.00 93 1007.9
20260505052013 9 243 0.0 3.2 0.00 0.00 0.00 93 1007.9
20260505051556 9 243 0.0 3.2 0.00 0.00 0.00 93 1008.0
20260505051013 9 243 0.0 3.2 0.00 0.00 0.00 93 1008.0
20260505050516 9 243 0.0 3.2 0.00 0.00 0.00 93 1008.0
20260505041548 9 243 0.0 3.2 0.00 0.00 0.00 92 1007.6
20260505041010 9 243 0.0 3.2 0.00 0.00 0.00 92 1007.6
20260505040514 9 243 1.6 3.2 0.00 0.00 0.00 92 1007.5
20260505040040 10 243 0.0 3.2 0.00 0.00 0.00 92 1007.5
20260505035515 10 243 0.0 3.2 0.00 0.00 0.00 92 1007.3
20260505035011 10 243 0.0 3.2 0.00 0.00 0.00 92 1007.3
20260505034539 10 243 1.6 3.2 0.00 0.00 0.00 92 1007.3
20260505034015 10 243 0.0 3.2 0.00 0.00 0.00 92 1007.2
20260505033512 10 243 0.0 4.8 0.00 0.00 0.00 92 1007.2
20260505033043 10 242 1.6 4.8 0.00 0.00 0.00 92 1007.1
20260505032512 10 243 1.6 4.8 0.00 0.00 0.00 91 1007.0
20260505032012 10 243 0.0 4.8 0.00 0.00 0.00 91 1006.9
20260505031539 10 241 1.6 4.8 0.00 0.00 0.00 91 1006.9
20260505031011 10 240 0.0 4.8 0.00 0.00 0.00 91 1006.9
20260505030512 10 248 0.0 3.2 0.00 0.00 0.00 91 1006.8
20260505030044 10 248 1.6 4.8 0.00 0.00 0.00 91 1006.9
20260505025515 10 248 1.6 3.2 0.00 0.00 0.00 91 1006.9
20260505025011 10 258 1.6 3.2 0.00 0.00 0.00 90 1006.8
20260505024547 10 249 1.6 3.2 0.00 0.00 0.00 90 1006.8
20260505024013 10 239 1.6 3.2 0.00 0.00 0.00 90 1006.8
20260505023512 10 239 1.6 3.2 0.00 0.00 0.00 90 1006.8
20260505023040 10 253 1.6 4.8 0.00 0.00 0.00 90 1006.8
20260505022512 10 247 1.6 3.2 0.00 0.00 0.00 90 1006.8
20260505022012 10 245 1.6 4.8 0.00 0.00 0.00 90 1006.9
20260505021537 10 245 1.6 4.8 0.00 0.00 0.00 90 1006.9
20260505021012 10 249 0.0 4.8 0.00 0.00 0.00 89 1006.8
20260505020515 10 251 1.6 4.8 0.00 0.00 0.00 89 1006.8
20260505020052 10 244 1.6 4.8 0.00 0.00 0.00 89 1006.8
20260505015513 11 232 1.6 4.8 0.00 0.00 0.00 89 1006.8
20260505015016 11 245 1.6 4.8 0.00 0.00 0.00 89 1006.8
20260505014549 11 251 1.6 4.8 0.00 0.00 0.00 89 1006.8
20260505014017 11 264 1.6 4.8 0.00 0.00 0.00 89 1006.8
20260505013511 11 244 1.6 4.8 0.00 0.00 0.00 88 1006.7
20260505013041 11 249 1.6 6.4 0.00 0.00 0.00 88 1006.8
20260505012514 11 247 3.2 6.4 0.00 0.00 0.00 88 1006.8
20260505012012 11 243 1.6 6.4 0.00 0.00 0.00 88 1006.7
20260505011541 11 244 1.6 6.4 0.00 0.00 0.00 87 1006.8
20260505011011 11 247 1.6 6.4 0.00 0.00 0.00 87 1006.9
20260505010512 11 250 1.6 6.4 0.00 0.00 0.00 87 1006.9
20260505010048 11 245 3.2 6.4 0.00 0.00 0.00 86 1006.8
20260505005515 12 248 3.2 6.4 0.00 0.00 0.00 85 1006.8
20260505005012 12 246 1.6 6.4 0.00 0.00 0.00 85 1006.8
20260505004538 12 252 1.6 6.4 0.00 0.00 0.00 85 1006.9
20260505004011 12 283 3.2 6.4 0.00 0.00 0.00 84 1007.0
20260505003518 12 241 3.2 6.4 0.00 0.00 0.00 84 1006.9
20260505003041 12 261 1.6 6.4 0.00 0.00 0.00 83 1006.8
20260505002512 12 250 3.2 4.8 0.00 0.00 0.00 83 1006.7
20260505002014 12 247 1.6 4.8 0.00 0.00 0.00 83 1006.8
20260505001541 13 246 1.6 6.4 0.00 0.00 0.00 82 1006.8
20260505001014 13 247 3.2 6.4 0.00 0.00 0.00 81 1006.8
20260505000512 13 265 1.6 4.8 0.00 0.00 0.00 80 1006.7
20260505000046 13 216 1.6 4.8 0.00 0.00 0.00 80 1006.8
20260504235511 13 236 1.6 4.8 0.00 0.00 0.00 81 1006.8
20260504235014 13 249 1.6 4.8 0.00 0.00 0.00 81 1006.8
20260504234539 13 256 1.6 4.8 0.00 0.00 0.00 82 1006.9
20260504234014 13 272 1.6 4.8 0.00 0.00 0.00 81 1006.9
20260504233515 13 260 1.6 4.8 0.00 0.00 0.00 81 1007.0
20260504233101 13 243 1.6 6.4 0.00 0.00 0.00 81 1007.0
20260504232513 13 256 1.6 6.4 0.00 0.00 0.00 81 1007.0
20260504232013 13 243 1.6 6.4 0.00 0.00 0.00 81 1007.0
20260504231546 13 249 1.6 4.8 0.00 0.00 0.00 81 1007.0
20260504231014 13 241 1.6 6.4 0.00 0.00 0.00 80 1007.1
20260504230512 13 228 1.6 6.4 0.00 0.00 0.00 81 1007.1
20260504230051 13 251 1.6 4.8 0.00 0.00 0.00 82 1007.1
20260504225518 13 247 1.6 4.8 0.00 0.00 0.00 81 1007.2
20260504225013 13 237 1.6 4.8 0.00 0.00 0.00 80 1007.2
20260504224542 13 254 1.6 4.8 0.00 0.00 0.00 81 1007.3
20260504224014 13 277 3.2 4.8 0.00 0.00 0.00 80 1007.2
20260504223512 13 277 1.6 6.4 0.00 0.00 0.00 80 1007.2
20260504223039 14 231 1.6 6.4 0.00 0.00 0.00 80 1007.3
20260504222515 14 264 1.6 4.8 0.00 0.00 0.00 79 1007.3
20260504222013 14 311 1.6 6.4 0.00 0.00 0.00 79 1007.4
20260504221543 14 271 1.6 6.4 0.00 0.00 0.00 81 1007.5
20260504221012 14 235 1.6 4.8 0.00 0.00 0.00 80 1007.6
20260504220515 13 267 1.6 6.4 0.00 0.00 0.00 81 1007.6
20260504220040 13 297 1.6 6.4 0.00 0.00 0.00 80 1007.6
20260504215513 13 278 1.6 6.4 0.00 0.00 0.00 81 1007.6
20260504215012 13 258 1.6 6.4 0.00 0.00 0.00 81 1007.6
20260504214545 13 275 3.2 6.4 0.00 0.00 0.00 80 1007.6
20260504214012 13 51 1.6 4.8 0.00 0.00 0.00 81 1007.6
20260504213513 13 268 1.6 4.8 0.00 0.00 0.00 82 1007.5
20260504213037 13 269 1.6 4.8 0.00 0.00 0.00 82 1007.5
20260504212521 13 5 0.0 4.8 0.00 0.00 0.00 82 1007.5
20260504212015 13 248 1.6 4.8 0.00 0.00 0.00 81 1007.4
20260504211546 13 287 0.0 4.8 0.00 0.00 0.00 82 1007.5